Friday, July 20, 2018, 4:57 AM EDT
Back to Local

KIPT, Williamsport-lycoming County

Location: Montoursville, PA, United States Lat: 41.25
Local Time: 4:57 AM EDT ( 8:57 GMT) Lon: -76.917
Time Zone: US/Eastern Elev: 528 ft

Show me the last for .
Show Decoded

2018-07-20 03:54 METAR KIPT 200754Z AUTO 01003KT 10SM CLR 16/13 A3011 RMK AO2 SLP191 T01560128 =
2018-07-20 02:54 METAR KIPT 200654Z AUTO 00000KT 10SM CLR 16/13 A3010 RMK AO2 SLP190 T01560133 =
2018-07-20 01:54 METAR KIPT 200554Z AUTO 35003KT 10SM CLR 16/13 A3010 RMK AO2 SLP189 T01610133
                 10256 20156 50004 =
2018-07-20 00:54 METAR KIPT 200454Z AUTO 00000KT 10SM CLR 17/13 A3010 RMK AO2 SLP190 T01720133
                 402830122 =
2018-07-19 23:54 METAR KIPT 200354Z AUTO 00000KT 10SM CLR 18/14 A3009 RMK AO2 SLP187 T01780139 =
2018-07-19 22:54 METAR KIPT 200254Z AUTO 00000KT 10SM CLR 18/15 A3009 RMK AO2 SLP186 T01830150
                 53013 =
2018-07-19 21:54 METAR KIPT 200154Z VRB03KT 10SM CLR 19/15 A3008 RMK AO2 SLP183 T01940150 =
2018-07-19 20:54 METAR KIPT 200054Z 00000KT 10SM CLR 24/14 A3005 RMK AO2 SLP175 T02390144 =
2018-07-19 19:54 METAR KIPT 192354Z 00000KT 10SM CLR 25/14 A3005 RMK AO2 SLP173 T02500139 10283
                 20250 56004 =
2018-07-19 18:54 METAR KIPT 192254Z 12005KT 10SM CLR 27/13 A3005 RMK AO2 SLP174 T02670133 =
2018-07-19 17:54 METAR KIPT 192154Z 21004KT 10SM CLR 28/11 A3005 RMK AO2 SLP173 T02780106 =
2018-07-19 16:54 METAR KIPT 192054Z VRB03KT 10SM CLR 28/10 A3006 RMK AO2 SLP177 T02830100 56012 =
2018-07-19 15:54 METAR KIPT 191954Z VRB03KT 10SM CLR 28/10 A3007 RMK AO2 SLP179 T02780100 =
2018-07-19 14:54 METAR KIPT 191854Z VRB05KT 10SM CLR 27/09 A3008 RMK AO2 SLP185 T02670094 =
2018-07-19 13:54 METAR KIPT 191754Z 23005KT 10SM CLR 26/09 A3010 RMK AO2 SLP188 T02610089 10261
                 20156 58011 =
2018-07-19 12:54 METAR KIPT 191654Z VRB03KT 10SM CLR 25/07 A3011 RMK AO2 SLP195 T02500067 =
2018-07-19 11:54 METAR KIPT 191554Z 11004KT 10SM CLR 24/08 A3012 RMK AO2 SLP196 T02390083 =
2018-07-19 10:54 METAR KIPT 191454Z 21003KT 10SM CLR 22/09 A3013 RMK AO2 SLP200 T02170094 58002 =
2018-07-19 09:54 METAR KIPT 191354Z VRB04KT 10SM CLR 19/11 A3013 RMK AO2 SLP200 T01940106 =
2018-07-19 08:54 METAR KIPT 191254Z VRB03KT 10SM CLR 17/12 A3014 RMK AO2 SLP203 T01720122 =
2018-07-19 07:54 METAR KIPT 191154Z 29003KT 10SM CLR 16/13 A3014 RMK AO2 SLP203 T01560128 10156
                 20122 51014 =
2018-07-19 06:54 METAR KIPT 191054Z 35005KT 10SM CLR 13/11 A3013 RMK AO2 SLP201 T01280106 =
2018-07-19 05:54 METAR KIPT 190954Z AUTO 00000KT 10SM CLR 12/11 A3011 RMK AO2 SLP195 T01220106 =

Support USWX by starting your Amazon purchase here.